This is the latest recevied weather packets stored in our database for station/object CT1ETE-13. If no packets are shown the sender has not sent any weather packets the latest 10 day(s).
| Time | Temp. | Humidity | Pressure | Rain* | Wind** | Luminosity | Snow |
|---|---|---|---|---|---|---|---|
| 1777137305 | 25.56° C | 51% | 1015.2 hPa | 0 mm | - | - | - |
| 1777136466 | 25.56° C | 52% | 1015.1 hPa | 0 mm | - | - | - |
| 1777135566 | 25.56° C | 51% | 1015 hPa | 0 mm | - | - | - |
| 1777134606 | 25.56° C | 51% | 1015 hPa | 0 mm | - | - | - |
| 1777133706 | 26.11° C | 50% | 1014.9 hPa | 0 mm | - | - | - |
| 1777132805 | 26.67° C | 48% | 1015 hPa | 0 mm | - | - | - |
| 1777131907 | 26.67° C | 49% | 1015 hPa | 0 mm | - | - | - |
| 1777131004 | 26.67° C | 48% | 1015 hPa | 0 mm | - | - | - |
| 1777130103 | 26.67° C | 48% | 1015 hPa | 0 mm | - | - | - |
| 1777129203 | 26.11° C | 46% | 1015.1 hPa | 0 mm | - | - | - |
| 1777128304 | 26.11° C | 48% | 1015.5 hPa | 0 mm | - | - | - |
| 1777127404 | 26.11° C | 49% | 1015.5 hPa | 0 mm | - | - | - |
| 1777126563 | 26.11° C | 50% | 1015.7 hPa | 0 mm | - | - | - |
| 1777125664 | 26.11° C | 51% | 1015.8 hPa | 0 mm | - | - | - |
| 1777124703 | 25.56° C | 50% | 1015.9 hPa | 0 mm | - | - | - |
| 1777123803 | 25.56° C | 51% | 1016 hPa | 0 mm | - | - | - |
| 1777122905 | 25.56° C | 48% | 1016.1 hPa | 0 mm | - | - | - |
| 1777122001 | 25.56° C | 52% | 1016.2 hPa | 0 mm | - | - | - |
| 1777121102 | 25° C | 54% | 1016.4 hPa | 0 mm | - | - | - |
| 1777120201 | 24.44° C | 54% | 1016.6 hPa | 0 mm | - | - | - |
| 1777119302 | 23.89° C | 56% | 1016.7 hPa | 0 mm | - | - | - |
| 1777118398 | 23.89° C | 56% | 1016.8 hPa | 0 mm | - | - | - |
| 1777117558 | 23.33° C | 59% | 1016.9 hPa | 0 mm | - | - | - |
| 1777116597 | 22.78° C | 60% | 1017.1 hPa | 0 mm | - | - | - |
| 1777115697 | 22.78° C | 62% | 1017.3 hPa | 0 mm | - | - | - |
* Rain latest hour (hover to see other rain measurements)
** Current wind speed in m/s (hover to see current wind gust speed)